Other Public Products
Issued by NWS Grand Forks, ND

Home | Current Version | Previous Version | Graphics & Text | Print | Product List | Glossary On
Versions: 1 2 3 4 5 6 7 8 9 10 11 12 13 14 15 16 17 18 19 20 21 22 23 24 25 26 27 28 29 30 31 32 33 34 35 36 37 38 39 40 41 42 43 44 45 46 47 48 49 50
000
FPUS83 KFGF 210810
OPUFGF
PRAIRIE TO PINES WEATHER ROUNDUP
NATIONAL WEATHER SERVICE EASTERN NORTH DAKOTA/GRAND FORKS ND
300 AM CDT THU SEP 21 2017

 **SATELLITE DATA USED TO AUGMENT SKY COVER AT AUTOMATED STATIONS**
 *****  WEATHER ACROSS EASTERN NORTH DAKOTA  *****

CITY           SKY/WX    TMP DP  RH WIND       PRES   REMARKS
GRAND FORKS    FAIR      51  46  83 S7        29.82S
GRAND FORKS AF FAIR      51  44  76 S7        29.81S
GRAND CITY NWS NOT AVBL
BUXTON         NOT AVBL
DEVILS LAKE    FAIR      55  43  63 S13       29.75F
FARGO          FAIR      56  46  69 SE15G21   29.85F
WAHPETON ARPT  FAIR      52  45  76 SE10      29.89F
$$

 *****  WEATHER ACROSS CENTRAL AND WESTERN NORTH DAKOTA  *****

CITY           SKY/WX    TMP DP  RH WIND       PRES   REMARKS
JAMESTOWN      FAIR      48  43  82 S8        29.79F
BISMARCK       FAIR      54  39  57 SE10      29.72F
MINOT          FAIR      59  37  44 SE9       29.64F
MINOT AFB      FAIR      51  38  62 S8        29.63F
GARRISON         N/A     56  41  57 S10       29.67F
WILLISTON      FAIR      41  37  86 NW5       29.62F
DICKINSON      FAIR      53  35  50 S10       29.65F
HETTINGER      CLOUDY    61  32  33 S16       29.70F
$$

 *****  OTHER OBSERVATIONS NORTHEAST NORTH DAKOTA  *****

CITY           SKY/WX    TMP DP  RH WIND       PRES   REMARKS
WALHALLA       FAIR     N/A N/A N/A S12       29.75F
LANGDON        FAIR      54  43  66 S15G21    29.76F
CAVALIER       FAIR      50  45  81 S7        29.78S
GRAFTON        FAIR      48  45  87 S13       29.81F
CANDO          FAIR      52  45  76 S12       29.75F
FORT TOTTEN      N/A     51  42  71 S12       29.95S
ROLLA          FAIR      48  41  76 S8        29.71F
RUGBY          FAIR      54  41  62 S12       29.69F
 ***** THE ABOVE OBSERVATIONS ARE NON NWS ARE NOT QUALITY
        CONTROLLED AND MAY MIS-REPORT RAIN FOR SNOW...
$$

 *****  OTHER OBSERVATIONS SOUTHEAST NORTH DAKOTA *****

CITY           SKY/WX    TMP DP  RH WIND       PRES   REMARKS
COOPERSTOWN    FAIR      52  45  76 S13       29.81F
VALLEY CITY    FAIR      52  46  82 S9        29.84S
OAKES          NOT AVBL
GWINNER        SUNNY     45  45 100 CALM      29.84F
SHEYENNE NWR     N/A     50  47  88 SE7       29.95S
BUFFALO        NOT AVBL
WYNDMERE       NOT AVBL
 ***** THE ABOVE OBSERVATIONS ARE NON NWS ARE NOT QUALITY
       CONTROLLED AND MAY MIS-REPORT RAIN FOR SNOW...
$$

  *****  WEATHER ACROSS NORTHERN MINNESOTA  *****

CITY           SKY/WX    TMP DP  RH WIND       PRES   REMARKS
FLAG ISLAND    FAIR      59  50  72 S10       29.85S
WARROAD        FAIR      52  45  76 S7        29.88R
ROSEAU         FAIR      54  45  71 S13       29.85S
HALLOCK        CLOUDY    54  45  71 S13       29.80S
THF RVR FALLS  FAIR      52  43  71 S9        29.88S
HALSTAD        NOT AVBL
FOSSTON        FAIR      54  45  71 SE9       29.90S
BAUDETTE       FAIR      51  45  79 S7        29.90R
WASKISH        FAIR      50  45  81 SE6       29.93S
CROOKSTON      FAIR      54  45  71 S13       29.85F
$$
  *****  WEATHER ACROSS CENTRAL AND WEST MINNESOTA  *****

CITY           SKY/WX    TMP DP  RH WIND       PRES   REMARKS
BEMIDJI        FAIR      43  40  89 SE3       29.94S
PARK RAPIDS    FAIR      51  44  77 SE6       29.95S
WADENA         FAIR      45  41  87 CALM      29.94F
DETROIT LAKES  FAIR      52  46  82 SE7       29.93S
MOORHEAD       FAIR      54  45  71 SE8       29.87F
FERGUS FALLS   FAIR      57  48  72 SE12      29.91F
ELBOW LAKE     FAIR      53  47  82 E9        29.92F
MORRIS MN      FAIR      52  46  82 SE9       29.92F
STAPLES        NOT AVBL
WHEATON        FAIR      48  46  93 SE9       29.91F
$$
  *****  WEATHER ELSEWHERE ACROSS MINNESOTA  *****

CITY           SKY/WX    TMP DP  RH WIND       PRES   REMARKS
DULUTH         FAIR      43  42  97 CALM      30.01S
INTRNTL FALLS  FAIR      44  40  85 SE3       29.96R
ELY            FAIR      39  39 100 CALM      30.01S
CLOQUET        FAIR      43  39  87 N3        30.01S
BRAINERD       FAIR      49  45  86 VRB6      29.97F
HIBBING        FAIR      37  37 100 CALM      30.01S FOG
ALEXANDRIA     FAIR      52  46  80 SE8       29.96F
SAINT CLOUD    FAIR      45  45 100 CALM      29.99S
MINNEAPOLIS    FAIR      58  54  86 CALM      29.99F
$$

  *****  WEATHER ACROSS SOUTH DAKOTA  *****

CITY           SKY/WX    TMP DP  RH WIND       PRES   REMARKS
SIOUX FALLS    FAIR      50  48  93 E5        29.92F
BROOKINGS      FAIR      51  44  77 SE10      29.92F
WATERTOWN      FAIR      56  44  64 SE12      29.88F
HURON          FAIR      54  47  77 SE12      29.85F
SISSETON         N/A     50  47  89 SE8       29.88S
ABERDEEN       FAIR      53  47  79 S10       29.83S
MITCHELL       FAIR      52  47  83 S7        29.87F
PIERRE         FAIR      58  42  55 SE12      29.77S
MOBRIDGE       FAIR      61  44  53 SE13      29.75S
RAPID CITY     NOT AVBL
$$

  *****  SOME WEATHER IN NEARBY STATES *****

CITY           SKY/WX    TMP DP  RH WIND       PRES   REMARKS
GLASGOW MT     FAIR      48  38  68 W3        29.61R
GREAT FALLS MT FAIR      42  29  59 SW14      29.69R
CHEYENNE WY    FAIR      49  31  49 S6        29.87R
SCOTTSBLUFF NE FAIR      57  36  45 E13       29.78F
OMAHA NE       FAIR      62  54  74 NW5       29.88F
DES MOINES IA  FAIR      69  60  73 NE5       29.89F
DAVENPORT IA   MOCLDY    69  64  84 SW18G25   30.01R
CHICAGO IL     MOCLDY    75  67  76 S6        29.94F
EAU CLAIRE WI  FAIR      52  51  97 SE3       29.99S
LA CROSSE WI   NOT AVBL
$$

  *****  SOME NATIONAL WEATHER *****

CITY           SKY/WX    TMP DP  RH WIND       PRES   REMARKS
LA GUARDIA NY  CLOUDY    73  66  78 N13       29.94R
RALEIGH NC     FAIR      68  67  96 CALM      30.00F
ATLANTA GA     FAIR      71  67  87 NW5       30.04S
NEW ORLEANS LA FAIR      75  74  96 CALM      29.99S
OKLAHOMA CITY  MOCLDY    78  70  76 S13       29.86S
ALBUQUERQUE NM FAIR      63  33  32 SE6       30.04R
SALT LAKE CITY FAIR      55  44  66 N7        29.71R
LOS ANGELES CA CLOUDY    67  64  90 S6        29.85F
BOISE ID       CLOUDY    49  42  77 W6        29.76R
SEATTLE WA     MOCLDY    51  48  89 SE6       29.85R
$$

*** WEATHER ACROSS MANITOBA...SASKATCHEWAN AND ONTARIO ***
                ***ONTARIO***

CITY           SKY/WX    TMP DP  RH WIND       PRES   REMARKS
GERALDTON      FOG       46  46 100 W2        29.97S VSB 3/4
THUNDER BAY    CLEAR     46  46 100 W5        30.01R
SIOUX LOOKOUT  CLEAR     50  45  81 S8        29.93R
TORONTO        CLEAR     64  59  82 E3        30.10R
BIG TROUT LK   PTCLDY    54  46  76 SW13G21   29.76S
PICKLE LAKE    NOT AVBL
DRYDEN         CLEAR     54  45  71 S10       29.92R
KENORA         PTCLDY    54  46  76 S8        29.87R
$$
                *** MANITOBA***

CITY           SKY/WX    TMP DP  RH WIND       PRES   REMARKS
BRANDON        PTCLDY    48  43  81 E5        29.65F
DAUPHIN        CLEAR     55  37  50 S13       29.61S
ISLAND LAKE    PTCLDY    55  41  58 S16G28    29.63R
PILOT MOUND    NOT AVBL
THE PAS        PTCLDY    43  39  87 SE5       29.47R
THOMPSON       NOT AVBL
WINNIPEG       PTCLDY    54  43  66 S15       29.74S
LYNN LAKE      CLOUDY    41  41 100 N8        29.36S FOG
CHURCHILL      LGT RAIN  45  45 100 E15       29.51F FOG
GILLAM         CLEAR     46  43  87 S7        29.51R
$$
                ***SASKATCHEWAN***

CITY           SKY/WX    TMP DP  RH WIND       PRES   REMARKS
ESTEVAN        PTCLDY    43  37  81 S3        29.62S
KINDERSLEY     CLEAR     34  32  93 W8        29.55R
LLOYDMINSTER   CLOUDY    43  41  93 W7        29.48R FOG
PRINCE ALBERT  PTCLDY    32  30  93 SW2       29.48R FOG
REGINA         PTCLDY    41  32  70 S8        29.57S
YORKTON        CLEAR     45  34  65 S10       29.57S



USA.gov is the U.S. government's official web portal to all federal, state and local government web resources and services.